Change the Weather History Date:

Saturday, February 9, 2013

  Actual Average Record
Temperature  
Mean Temperature 32 °F -  
Max Temperature 42 °F 44 °F 69 °F (2001)
Min Temperature 23 °F 24 °F 5 °F (2003)
Degree Days  
Heating Degree Days 32    
Moisture  
Dew Point 20 °F    
Average Humidity 60    
Maximum Humidity 93    
Minimum Humidity 34    
Precipitation  
Precipitation 0.00 in - - ()
Sea Level Pressure  
Sea Level Pressure 30.18 in    
Wind  
Wind Speed 20 mph (NW)    
Max Wind Speed 30 mph    
Max Gust Speed 40 mph    
Visibility 10 miles    
Events      
Averages and records for this station are not official NWS values.
T = Trace of Precipitation, MM = Missing Value Source: NWS Daily Summary

Daily Weather History Graph

Daily Weather History Graph

Search for Another Location

Airport or City:

Trip Planner

Search our weather history database for the weather conditions in past years. The results will help you decide how hot, cold, wet, or windy it might be!

Date:

Astronomy

Feb. 09, 2013 Rise Set
Actual Time 7:07 AM EST 5:41 PM EST
Civil Twilight 6:40 AM EST 6:08 PM EST
Nautical Twilight 6:08 AM EST 6:40 PM EST
Astronomical Twilight 5:37 AM EST 7:11 PM EST
Moon 6:18 AM EST (2/9) 5:21 PM EST (2/9)
Length of Visible Light 11h 28m
Length of Day
10h 33m
Waning Crescent, 0% of the Moon is Illuminated
Feb 9
Waning Crescent
Feb 10
New
Feb 17
First Quarter
Feb 25
Full
Mar 4
Last Quarter

Hourly Weather History & Observations

Time (EST) Temp. Windchill Dew Point Humidity Pressure Visibility Wind Dir Wind Speed Gust Speed Precip Events Conditions
12:15 AM 35.6 °F 22.7 °F 23.0 °F 60% 29.96 in 10.0 mi NW 28.8 mph 35.7 mph N/A   Overcast
12:35 AM 35.6 °F 24.0 °F 21.2 °F 56% 29.96 in 10.0 mi WNW 23.0 mph 36.8 mph N/A   Overcast
12:55 AM 33.8 °F 22.2 °F 23.0 °F 65% 29.96 in 10.0 mi WNW 20.7 mph 33.4 mph N/A   Scattered Clouds
1:15 AM 33.8 °F 23.9 °F 23.0 °F 65% 29.98 in 10.0 mi NW 15.0 mph 28.8 mph N/A   Mostly Cloudy
1:35 AM 35.6 °F 25.2 °F 21.2 °F 56% 29.99 in 10.0 mi NW 18.4 mph 27.6 mph N/A   Overcast
1:55 AM 33.8 °F 20.5 °F 21.2 °F 60% 29.99 in 10.0 mi NW 27.6 mph 34.5 mph N/A   Overcast
2:15 AM 33.8 °F 23.2 °F 21.2 °F 60% 30.01 in 10.0 mi NW 17.3 mph 29.9 mph N/A   Overcast
2:35 AM 33.8 °F 21.3 °F 21.2 °F 60% 30.01 in 10.0 mi NW 24.2 mph 35.7 mph N/A   Overcast
2:55 AM 33.8 °F 20.5 °F 21.2 °F 60% 30.02 in 10.0 mi NW 27.6 mph 38.0 mph N/A   Mostly Cloudy
3:15 AM 33.8 °F 20.5 °F 21.2 °F 60% 30.04 in 10.0 mi NW 27.6 mph 36.8 mph N/A   Overcast
3:35 AM 33.8 °F 21.6 °F 21.2 °F 60% 30.06 in 10.0 mi NNW 23.0 mph 39.1 mph N/A   Overcast
3:55 AM 33.8 °F 22.2 °F 21.2 °F 60% 30.06 in 10.0 mi NNW 20.7 mph 32.2 mph N/A   Overcast
4:15 AM 33.8 °F 22.2 °F 21.2 °F 60% 30.08 in 10.0 mi NNW 20.7 mph 31.1 mph N/A   Overcast
4:35 AM 33.8 °F 21.3 °F 21.2 °F 60% 30.09 in 10.0 mi NW 24.2 mph 31.1 mph N/A   Overcast
4:55 AM 33.8 °F 20.8 °F 21.2 °F 60% 30.07 in 10.0 mi WNW 26.5 mph 36.8 mph N/A   Overcast
5:15 AM 33.8 °F 21.9 °F 21.2 °F 60% 30.08 in 10.0 mi NW 21.9 mph 27.6 mph N/A   Mostly Cloudy
5:35 AM 32.0 °F 17.6 °F 21.2 °F 64% 30.07 in 10.0 mi NW 29.9 mph 34.5 mph N/A   Scattered Clouds
5:55 AM 32.0 °F 18.6 °F 23.0 °F 69% 30.07 in 10.0 mi NW 25.3 mph 40.3 mph N/A   Clear
6:15 AM 32.0 °F 18.1 °F 23.0 °F 69% 30.09 in 10.0 mi NNW 27.6 mph 38.0 mph N/A   Clear
6:35 AM 32.0 °F 20.1 °F 21.2 °F 64% 30.11 in 10.0 mi NNW 19.6 mph 34.5 mph N/A   Clear
6:55 AM 32.0 °F 17.9 °F 21.2 °F 64% 30.11 in 10.0 mi NNW 28.8 mph 36.8 mph N/A   Clear
7:55 AM 30.2 °F 16.8 °F 19.4 °F 64% 30.19 in 10.0 mi NNW 23.0 mph 36.8 mph N/A   Clear
8:55 AM 32.0 °F 20.1 °F 19.4 °F 60% 30.21 in 10.0 mi NNW 19.6 mph 24.2 mph N/A   Clear
9:45 AM 33.8 °F 21.3 °F 19.4 °F 56% 30.22 in 10.0 mi NNW 24.2 mph 35.7 mph N/A   Partly Cloudy
10:05 AM 35.6 °F 24.8 °F 19.4 °F 52% 30.25 in 10.0 mi NNW 19.6 mph 26.5 mph N/A   Clear
11:45 AM 39.2 °F 29.0 °F 19.4 °F 45% 30.25 in 10.0 mi NW 21.9 mph 28.8 mph N/A   Clear
12:45 PM 41.0 °F 32.5 °F 19.4 °F 42% 30.25 in 10.0 mi NNW 17.3 mph 21.9 mph N/A   Clear
1:45 PM 42.8 °F 36.2 °F 19.4 °F 39% 30.24 in 10.0 mi NW 12.7 mph 23.0 mph N/A   Clear
2:45 PM 42.8 °F 35.4 °F 15.8 °F 34% 30.26 in 10.0 mi NNW 15.0 mph 25.3 mph N/A   Clear
3:45 PM 42.8 °F 36.6 °F 15.8 °F 34% 30.27 in 10.0 mi North 11.5 mph 23.0 mph N/A   Clear
5:50 PM 37.4 °F 30.8 °F 15.8 °F 41% 30.33 in 10.0 mi NNW 9.2 mph - N/A   Clear
5:55 PM 41.0 °F 36.4 °F 15.8 °F 36% 30.30 in 10.0 mi NNW 6.9 mph - N/A   Clear
6:45 PM 35.6 °F 28.6 °F 15.8 °F 44% 30.34 in 10.0 mi NNW 9.2 mph - N/A   Clear
7:45 PM 33.8 °F 27.7 °F 15.8 °F 48% 30.35 in 10.0 mi North 6.9 mph - N/A   Clear
9:15 PM 33.8 °F 28.6 °F 15.8 °F 48% 30.36 in 10.0 mi North 5.8 mph - N/A   Clear
9:35 PM 26.6 °F 21.2 °F 21.2 °F 80% 30.37 in 10.0 mi NW 4.6 mph - N/A   Clear
9:55 PM 26.6 °F - 21.2 °F 80% 30.38 in 10.0 mi Calm Calm - N/A   Clear
10:15 PM 26.6 °F 22.6 °F 21.2 °F 80% 30.38 in 10.0 mi NW 3.5 mph - N/A   Clear
10:35 PM 26.6 °F 21.2 °F 21.2 °F 80% 30.38 in 10.0 mi NW 4.6 mph - N/A   Clear
10:55 PM 28.4 °F 23.3 °F 19.4 °F 69% 30.38 in 10.0 mi North 4.6 mph - N/A   Clear
11:15 PM 26.6 °F - 19.4 °F 74% 30.39 in 10.0 mi Calm Calm - N/A   Clear
11:35 PM 23.0 °F - 19.4 °F 86% 30.40 in 10.0 mi Calm Calm - N/A   Clear
11:55 PM 23.0 °F - 21.2 °F 93% 30.41 in 10.0 mi Calm Calm - N/A   Clear